When you browse on this site, cookies collect data to enhance your experience and personalize the content and advertising you see.
Visit our Privacy Policy to learn more. By continuing to use the site, you agree to this use of cookies and data.

Hourly Weather Korçe

Today, 21 September, Monday

Time Temperature Precipitation Wind Pressure Humidity
00:00 +14°C° 0 mm 1 mps 668 mmHg 79%
01:00 +13°C° 0 mm 1 mps 668 mmHg 80%
02:00 +13°C° 0 mm 1 mps 668 mmHg 80%
03:00 +13°C° 0 mm 1 mps 667 mmHg 81%
04:00 +13°C° 0 mm 1 mps 667 mmHg 81%
05:00 +14°C° 0 mm 1 mps 668 mmHg 75%
06:00 +15°C° 0 mm 1 mps 668 mmHg 70%
07:00 +18°C° 0 mm 1 mps 669 mmHg 64%
08:00 +20°C° 0 mm 1 mps 670 mmHg 56%
09:00 +23°C° 0 mm 1 mps 670 mmHg 48%
10:00 +25°C° 0 mm 1 mps 671 mmHg 40%
11:00 +26°C° 0 mm 1 mps 671 mmHg 38%
12:00 +26°C° 0 mm 1 mps 671 mmHg 35%
13:00 +26°C° 0 mm 2 mps 671 mmHg 33%
14:00 +25°C° 0.4 mm 2 mps 670 mmHg 40%
15:00 +24°C° 0.4 mm 2 mps 670 mmHg 47%
16:00 +21°C° 0.4 mm 2 mps 669 mmHg 54%
17:00 +21°C° 0.9 mm 1 mps 669 mmHg 62%
18:00 +19°C° 0.9 mm 1 mps 669 mmHg 70%
19:00 +16°C° 0.9 mm 1 mps 669 mmHg 78%
20:00 +16°C° 0.1 mm 1 mps 669 mmHg 79%
21:00 +15°C° 0.1 mm 1 mps 669 mmHg 81%
22:00 +15°C° 0.1 mm 1 mps 669 mmHg 82%
23:00 +14°C° 0 mm 1 mps 669 mmHg 83%

Tomorrow, 22 September, Tuesday

Time Temperature Precipitation Wind Pressure Humidity
00:00 +14°C° 0 mm 1 mps 669 mmHg 84%
01:00 +14°C° 0 mm 1 mps 668 mmHg 85%
02:00 +14°C° 0 mm 1 mps 668 mmHg 86%
03:00 +13°C° 0 mm 1 mps 668 mmHg 86%
04:00 +13°C° 0 mm 1 mps 668 mmHg 87%
05:00 +14°C° 0 mm 1 mps 668 mmHg 82%
06:00 +15°C° 0 mm 1 mps 669 mmHg 78%
07:00 +16°C° 0 mm 1 mps 669 mmHg 74%
08:00 +18°C° 0 mm 2 mps 670 mmHg 64%
09:00 +20°C° 0 mm 2 mps 670 mmHg 54%
10:00 +24°C° 0 mm 2 mps 671 mmHg 44%
11:00 +24°C° 0 mm 2 mps 671 mmHg 40%
12:00 +25°C° 0 mm 2 mps 671 mmHg 37%
13:00 +26°C° 0 mm 2 mps 670 mmHg 33%
14:00 +25°C° 0 mm 3 mps 670 mmHg 35%
15:00 +25°C° 0 mm 3 mps 670 mmHg 37%
16:00 +24°C° 0 mm 3 mps 669 mmHg 39%
17:00 +21°C° 0.1 mm 2 mps 669 mmHg 50%
18:00 +18°C° 0.1 mm 2 mps 668 mmHg 60%
19:00 +16°C° 0.1 mm 1 mps 668 mmHg 71%
20:00 +15°C° 0 mm 1 mps 668 mmHg 74%
21:00 +15°C° 0 mm 1 mps 668 mmHg 76%
22:00 +14°C° 0 mm 1 mps 668 mmHg 79%
23:00 +14°C° 0 mm 2 mps 667 mmHg 81%

Day after tomorrow, 23 September, Wednesday

Time Temperature Precipitation Wind Pressure Humidity
00:00 +14°C° 0 mm 2 mps 667 mmHg 82%
01:00 +13°C° 0 mm 2 mps 667 mmHg 84%
02:00 +13°C° 0 mm 2 mps 667 mmHg 85%
03:00 +13°C° 0 mm 2 mps 667 mmHg 86%
04:00 +13°C° 0 mm 2 mps 666 mmHg 86%
05:00 +14°C° 0 mm 2 mps 667 mmHg 83%
06:00 +15°C° 0 mm 2 mps 667 mmHg 80%
07:00 +16°C° 0 mm 2 mps 668 mmHg 76%
08:00 +18°C° 0 mm 2 mps 668 mmHg 69%
09:00 +20°C° 0 mm 2 mps 668 mmHg 61%
10:00 +22°C° 0 mm 3 mps 669 mmHg 53%
11:00 +22°C° 0.7 mm 3 mps 668 mmHg 53%
12:00 +22°C° 0.7 mm 3 mps 668 mmHg 53%
13:00 +22°C° 0.7 mm 3 mps 668 mmHg 53%
14:00 +22°C° 0.9 mm 3 mps 668 mmHg 56%
15:00 +21°C° 0.9 mm 3 mps 667 mmHg 58%
16:00 +20°C° 0.9 mm 3 mps 667 mmHg 61%
17:00 +19°C° 1.3 mm 2 mps 666 mmHg 69%
18:00 +17°C° 1.3 mm 2 mps 666 mmHg 78%
19:00 +15°C° 1.3 mm 1 mps 666 mmHg 86%
20:00 +15°C° 0.9 mm 1 mps 666 mmHg 87%
21:00 +15°C° 0.9 mm 1 mps 666 mmHg 88%
22:00 +15°C° 0.9 mm 1 mps 666 mmHg 89%
23:00 +14°C° 0.3 mm 1 mps 666 mmHg 90%

24 September, Thursday

Time Temperature Precipitation Wind Pressure Humidity
00:00 +14°C° 0.3 mm 1 mps 665 mmHg 90%
01:00 +14°C° 0.3 mm 1 mps 665 mmHg 91%
02:00 +14°C° 0.1 mm 1 mps 665 mmHg 91%
03:00 +13°C° 0.1 mm 1 mps 665 mmHg 91%
04:00 +13°C° 0.1 mm 1 mps 665 mmHg 92%
05:00 +14°C° 0 mm 1 mps 665 mmHg 88%
06:00 +15°C° 0 mm 1 mps 666 mmHg 85%
07:00 +15°C° 0 mm 0 mps 666 mmHg 82%
08:00 +18°C° 0.2 mm 1 mps 667 mmHg 73%
09:00 +20°C° 0.2 mm 1 mps 667 mmHg 64%
10:00 +21°C° 0.2 mm 2 mps 668 mmHg 55%
11:00 +21°C° 0.1 mm 2 mps 668 mmHg 52%
12:00 +22°C° 0.1 mm 3 mps 668 mmHg 49%
13:00 +22°C° 0.1 mm 3 mps 668 mmHg 46%
14:00 +22°C° 0.1 mm 3 mps 668 mmHg 49%
15:00 +21°C° 0.1 mm 3 mps 668 mmHg 52%
16:00 +21°C° 0.1 mm 3 mps 667 mmHg 54%
17:00 +19°C° 0 mm 3 mps 667 mmHg 61%
18:00 +17°C° 0 mm 2 mps 667 mmHg 69%
19:00 +16°C° 0 mm 2 mps 667 mmHg 76%
20:00 +15°C° 0 mm 1 mps 667 mmHg 77%
21:00 +15°C° 0 mm 1 mps 667 mmHg 78%
22:00 +14°C° 0 mm 1 mps 667 mmHg 78%
23:00 +14°C° 0 mm 1 mps 667 mmHg 76%

25 September, Friday

Time Temperature Precipitation Wind Pressure Humidity
00:00 +14°C° 0 mm 1 mps 667 mmHg 74%
01:00 +13°C° 0 mm 1 mps 667 mmHg 71%
02:00 +13°C° 0 mm 1 mps 666 mmHg 68%
03:00 +13°C° 0 mm 1 mps 666 mmHg 66%
04:00 +13°C° 0 mm 1 mps 666 mmHg 63%
05:00 +14°C° 0 mm 1 mps 666 mmHg 58%
06:00 +15°C° 0 mm 1 mps 667 mmHg 53%
07:00 +18°C° 0 mm 1 mps 667 mmHg 49%
08:00 +20°C° 0 mm 1 mps 668 mmHg 43%
09:00 +22°C° 0 mm 1 mps 668 mmHg 37%
10:00 +24°C° 0 mm 1 mps 669 mmHg 32%
11:00 +25°C° 0 mm 2 mps 669 mmHg 31%
12:00 +26°C° 0 mm 2 mps 669 mmHg 31%
13:00 +26°C° 0 mm 2 mps 668 mmHg 31%
14:00 +26°C° 0 mm 2 mps 668 mmHg 33%
15:00 +26°C° 0 mm 2 mps 668 mmHg 35%
16:00 +25°C° 0 mm 2 mps 667 mmHg 37%
17:00 +23°C° 0 mm 2 mps 667 mmHg 44%
18:00 +20°C° 0 mm 2 mps 666 mmHg 51%
19:00 +18°C° 0 mm 2 mps 665 mmHg 58%
20:00 +17°C° 0 mm 2 mps 665 mmHg 60%
21:00 +17°C° 0 mm 2 mps 665 mmHg 63%
22:00 +16°C° 0 mm 3 mps 665 mmHg 65%
23:00 +16°C° 0 mm 3 mps 664 mmHg 65%

26 September, Saturday

Time Temperature Precipitation Wind Pressure Humidity
00:00 +16°C° 0 mm 3 mps 664 mmHg 64%
01:00 +16°C° 0 mm 3 mps 663 mmHg 64%
02:00 +16°C° 0 mm 3 mps 663 mmHg 63%
03:00 +16°C° 0 mm 3 mps 663 mmHg 62%
04:00 +16°C° 0 mm 3 mps 662 mmHg 61%
05:00 +16°C° 0.2 mm 3 mps 663 mmHg 62%
06:00 +16°C° 0.2 mm 3 mps 663 mmHg 62%
07:00 +17°C° 0.2 mm 3 mps 663 mmHg 63%
08:00 +17°C° 0.4 mm 3 mps 663 mmHg 66%
09:00 +17°C° 0.4 mm 4 mps 662 mmHg 69%
10:00 +18°C° 0.4 mm 4 mps 662 mmHg 73%
11:00 +20°C° 0 mm 5 mps 663 mmHg 61%
12:00 +23°C° 0 mm 6 mps 663 mmHg 49%
13:00 +27°C° 0 mm 7 mps 663 mmHg 37%
14:00 +23°C° 0.7 mm 6 mps 662 mmHg 50%
15:00 +21°C° 0.7 mm 4 mps 662 mmHg 63%
16:00 +18°C° 0.7 mm 3 mps 661 mmHg 77%
17:00 +17°C° 1.2 mm 3 mps 661 mmHg 82%
18:00 +16°C° 1.2 mm 3 mps 661 mmHg 88%
19:00 +15°C° 1.2 mm 2 mps 661 mmHg 94%
20:00 +14°C° 1 mm 3 mps 661 mmHg 94%
21:00 +14°C° 1 mm 3 mps 661 mmHg 94%
22:00 +13°C° 1 mm 3 mps 662 mmHg 94%
23:00 +13°C° 0.4 mm 3 mps 662 mmHg 92%
Show more